Time,TemperatureF,DewpointF,PressureIn,WindDirection,WindDirectionDegrees,WindSpeedMPH,WindSpeedGustMPH,Humidity,HourlyPrecipIn,Conditions,Clouds,dailyrainin,SolarRadiationWatts/m^2,SoftwareType,DateUTC
2013-01-05 00:14:00,32.6,23.0,30.06,West,261,2.0,-999.0,68,-99.99,,,0.00,0,weatherlink.com 1.10,2013-01-05 05:14:00,
2013-01-05 00:29:00,32.3,23.0,30.07,West,262,2.0,-999.0,69,-99.99,,,0.00,0,weatherlink.com 1.10,2013-01-05 05:29:00,
2013-01-05 00:44:00,32.1,23.0,30.07,SW,231,1.0,-999.0,69,-99.99,,,0.00,0,weatherlink.com 1.10,2013-01-05 05:44:00,
2013-01-05 00:59:00,31.9,23.0,30.07,WNW,284,2.0,-999.0,70,-99.99,,,0.00,0,weatherlink.com 1.10,2013-01-05 05:59:00,
2013-01-05 01:14:00,31.7,23.0,30.07,WSW,251,1.0,-999.0,70,-99.99,,,0.00,0,weatherlink.com 1.10,2013-01-05 06:14:00,
2013-01-05 01:29:00,31.4,23.0,30.08,West,263,3.0,-999.0,70,-99.99,,,0.00,0,weatherlink.com 1.10,2013-01-05 06:29:00,
2013-01-05 01:44:00,31.2,22.0,30.09,West,271,2.0,-999.0,70,-99.99,,,0.00,0,weatherlink.com 1.10,2013-01-05 06:44:00,
2013-01-05 01:59:00,31.6,22.0,30.09,West,271,3.0,-999.0,69,-99.99,,,0.00,0,weatherlink.com 1.10,2013-01-05 06:59:00,
2013-01-05 02:14:00,32.3,22.0,30.10,WSW,254,4.0,-999.0,67,-99.99,,,0.00,0,weatherlink.com 1.10,2013-01-05 07:14:00,
2013-01-05 02:29:00,32.6,22.0,30.11,West,265,3.0,-999.0,66,-99.99,,,0.00,0,weatherlink.com 1.10,2013-01-05 07:29:00,
2013-01-05 02:44:00,32.4,22.0,30.12,West,275,3.0,-999.0,65,-99.99,,,0.00,0,weatherlink.com 1.10,2013-01-05 07:44:00,
2013-01-05 02:59:00,32.2,22.0,30.11,West,279,1.0,-999.0,65,-99.99,,,0.00,0,weatherlink.com 1.10,2013-01-05 07:59:00,
2013-01-05 03:14:00,32.2,22.0,30.12,West,260,2.0,-999.0,65,-99.99,,,0.00,0,weatherlink.com 1.10,2013-01-05 08:14:00,
2013-01-05 03:29:00,32.3,22.0,30.13,West,269,1.0,-999.0,65,-99.99,,,0.00,0,weatherlink.com 1.10,2013-01-05 08:29:00,
2013-01-05 03:44:00,32.0,21.0,30.14,WNW,289,4.0,-999.0,65,-99.99,,,0.00,0,weatherlink.com 1.10,2013-01-05 08:44:00,
2013-01-05 03:59:00,31.8,21.0,30.14,West,263,3.0,-999.0,65,-99.99,,,0.00,0,weatherlink.com 1.10,2013-01-05 08:59:00,
2013-01-05 04:14:00,31.6,21.0,30.15,WNW,292,3.0,-999.0,66,-99.99,,,0.00,0,weatherlink.com 1.10,2013-01-05 09:14:00,
2013-01-05 04:29:00,31.6,21.0,30.16,WNW,285,2.0,-999.0,66,-99.99,,,0.00,0,weatherlink.com 1.10,2013-01-05 09:29:00,
2013-01-05 04:44:00,31.5,21.0,30.18,West,260,2.0,-999.0,66,-99.99,,,0.00,0,weatherlink.com 1.10,2013-01-05 09:44:00,
2013-01-05 04:59:00,31.4,21.0,30.19,WNW,296,5.0,-999.0,66,-99.99,,,0.00,0,weatherlink.com 1.10,2013-01-05 09:59:00,
2013-01-05 05:15:00,31.2,21.0,30.20,West,276,3.0,-999.0,66,-99.99,,,0.00,0,weatherlink.com 1.10,2013-01-05 10:15:00,
2013-01-05 05:30:00,31.2,21.0,30.20,West,264,3.0,-999.0,66,-99.99,,,0.00,0,weatherlink.com 1.10,2013-01-05 10:30:00,
2013-01-05 05:45:00,31.3,21.0,30.21,WNW,285,3.0,-999.0,66,-99.99,,,0.00,0,weatherlink.com 1.10,2013-01-05 10:45:00,
2013-01-05 06:00:00,31.1,21.0,30.21,West,265,3.0,-999.0,66,-99.99,,,0.00,0,weatherlink.com 1.10,2013-01-05 11:00:00,
2013-01-05 06:15:00,31.2,21.0,30.22,WNW,287,4.0,-999.0,67,-99.99,,,0.00,0,weatherlink.com 1.10,2013-01-05 11:15:00,
2013-01-05 06:30:00,31.4,22.0,30.23,West,266,7.0,-999.0,67,-99.99,,,0.00,0,weatherlink.com 1.10,2013-01-05 11:30:00,
2013-01-05 06:45:00,31.2,21.0,30.23,WNW,288,10.0,-999.0,67,-99.99,,,0.00,0,weatherlink.com 1.10,2013-01-05 11:45:00,
2013-01-05 07:00:00,31.1,21.0,30.23,West,266,4.0,-999.0,67,-99.99,,,0.00,0,weatherlink.com 1.10,2013-01-05 12:00:00,
2013-01-05 07:15:00,30.7,21.0,30.24,West,272,4.0,-999.0,68,-99.99,,,0.00,0,weatherlink.com 1.10,2013-01-05 12:15:00,
2013-01-05 07:30:00,30.6,22.0,30.26,WSW,258,0.0,-999.0,70,-99.99,,,0.00,11,weatherlink.com 1.10,2013-01-05 12:30:00,
2013-01-05 07:45:00,30.1,21.0,30.25,WSW,250,0.0,-999.0,70,-99.99,,,0.00,19,weatherlink.com 1.10,2013-01-05 12:45:00,
2013-01-05 08:00:00,30.3,22.0,30.26,SW,233,1.0,-999.0,70,-99.99,,,0.00,30,weatherlink.com 1.10,2013-01-05 13:00:00,
2013-01-05 08:15:00,30.6,22.0,30.27,West,280,2.0,-999.0,70,-99.99,,,0.00,44,weatherlink.com 1.10,2013-01-05 13:15:00,
2013-01-05 08:30:00,31.7,22.0,30.28,West,265,3.0,-999.0,68,-99.99,,,0.00,97,weatherlink.com 1.10,2013-01-05 13:30:00,
2013-01-05 08:45:00,32.5,22.0,30.29,West,259,1.0,-999.0,66,-99.99,,,0.00,162,weatherlink.com 1.10,2013-01-05 13:45:00,
2013-01-05 09:00:00,33.2,23.0,30.29,West,268,5.0,-999.0,65,-99.99,,,0.00,204,weatherlink.com 1.10,2013-01-05 14:00:00,
2013-01-05 09:15:00,33.8,23.0,30.30,WNW,296,3.0,-999.0,64,-99.99,,,0.00,251,weatherlink.com 1.10,2013-01-05 14:15:00,
2013-01-05 09:30:00,34.5,23.0,30.29,WNW,294,3.0,-999.0,63,-99.99,,,0.00,288,weatherlink.com 1.10,2013-01-05 14:30:00,
2013-01-05 09:45:00,35.1,23.0,30.30,West,269,7.0,-999.0,62,-99.99,,,0.00,311,weatherlink.com 1.10,2013-01-05 14:45:00,
2013-01-05 10:01:00,36.0,24.0,30.30,North,355,3.0,-999.0,61,-99.99,,,0.00,345,weatherlink.com 1.10,2013-01-05 15:01:00,
2013-01-05 10:16:00,36.4,24.0,30.30,West,265,4.0,-999.0,60,-99.99,,,0.00,374,weatherlink.com 1.10,2013-01-05 15:16:00,
2013-01-05 10:31:00,37.0,24.0,30.31,NW,306,3.0,-999.0,60,-99.99,,,0.00,396,weatherlink.com 1.10,2013-01-05 15:31:00,
2013-01-05 10:46:00,37.5,24.0,30.32,WSW,252,3.0,-999.0,59,-99.99,,,0.00,418,weatherlink.com 1.10,2013-01-05 15:46:00,
2013-01-05 11:16:00,38.6,25.0,30.32,West,267,1.0,-999.0,58,-99.99,,,0.00,455,weatherlink.com 1.10,2013-01-05 16:16:00,
2013-01-05 11:31:00,39.0,25.0,30.30,North,5,7.0,-999.0,57,-99.99,,,0.00,468,weatherlink.com 1.10,2013-01-05 16:31:00,
2013-01-05 11:46:00,39.4,25.0,30.29,NW,318,4.0,-999.0,56,-99.99,,,0.00,464,weatherlink.com 1.10,2013-01-05 16:46:00,
2013-01-05 12:01:00,39.7,25.0,30.28,WNW,299,5.0,-999.0,55,-99.99,,,0.00,475,weatherlink.com 1.10,2013-01-05 17:01:00,
2013-01-05 12:16:00,40.1,25.0,30.28,WNW,288,2.0,-999.0,55,-99.99,,,0.00,471,weatherlink.com 1.10,2013-01-05 17:16:00,
2013-01-05 12:31:00,40.6,25.0,30.28,WNW,298,4.0,-999.0,54,-99.99,,,0.00,461,weatherlink.com 1.10,2013-01-05 17:31:00,
2013-01-05 12:46:00,40.9,25.0,30.28,WNW,296,7.0,-999.0,53,-99.99,,,0.00,455,weatherlink.com 1.10,2013-01-05 17:46:00,
2013-01-05 13:01:00,41.0,25.0,30.27,WNW,285,2.0,-999.0,53,-99.99,,,0.00,445,weatherlink.com 1.10,2013-01-05 18:01:00,
2013-01-05 13:16:00,41.7,25.0,30.27,West,275,3.0,-999.0,52,-99.99,,,0.00,436,weatherlink.com 1.10,2013-01-05 18:16:00,
2013-01-05 13:31:00,41.9,25.0,30.26,WNW,293,1.0,-999.0,52,-99.99,,,0.00,417,weatherlink.com 1.10,2013-01-05 18:31:00,
2013-01-05 13:46:00,41.8,24.0,30.25,WNW,292,3.0,-999.0,50,-99.99,,,0.00,394,weatherlink.com 1.10,2013-01-05 18:46:00,
2013-01-05 14:01:00,41.8,25.0,30.25,West,265,3.0,-999.0,52,-99.99,,,0.00,294,weatherlink.com 1.10,2013-01-05 19:01:00,
2013-01-05 14:16:00,42.0,25.0,30.25,NW,304,2.0,-999.0,51,-99.99,,,0.00,343,weatherlink.com 1.10,2013-01-05 19:16:00,
2013-01-05 14:31:00,42.3,25.0,30.25,WNW,285,1.0,-999.0,50,-99.99,,,0.00,295,weatherlink.com 1.10,2013-01-05 19:31:00,
2013-01-05 14:46:00,42.0,25.0,30.26,WNW,283,5.0,-999.0,51,-99.99,,,0.00,237,weatherlink.com 1.10,2013-01-05 19:46:00,
2013-01-05 15:01:00,41.8,25.0,30.26,West,267,3.0,-999.0,51,-99.99,,,0.00,257,weatherlink.com 1.10,2013-01-05 20:01:00,
2013-01-05 15:16:00,41.6,25.0,30.26,WNW,294,3.0,-999.0,51,-99.99,,,0.00,165,weatherlink.com 1.10,2013-01-05 20:16:00,
2013-01-05 15:31:00,41.8,25.0,30.26,West,265,3.0,-999.0,51,-99.99,,,0.00,91,weatherlink.com 1.10,2013-01-05 20:31:00,
2013-01-05 15:46:00,41.1,24.0,30.27,WSW,256,3.0,-999.0,52,-99.99,,,0.00,58,weatherlink.com 1.10,2013-01-05 20:46:00,
2013-01-05 16:01:00,40.7,25.0,30.26,West,259,1.0,-999.0,53,-99.99,,,0.00,39,weatherlink.com 1.10,2013-01-05 21:01:00,
2013-01-05 16:16:00,40.2,25.0,30.26,West,267,0.0,-999.0,54,-99.99,,,0.00,26,weatherlink.com 1.10,2013-01-05 21:16:00,
2013-01-05 16:33:00,39.5,24.0,30.26,West,267,0.0,-999.0,55,-99.99,,,0.00,14,weatherlink.com 1.10,2013-01-05 21:33:00,
2013-01-05 16:46:00,38.6,24.0,30.26,West,267,0.0,-999.0,57,-99.99,,,0.00,0,weatherlink.com 1.10,2013-01-05 21:46:00,
2013-01-05 17:01:00,37.3,24.0,30.27,West,267,0.0,-999.0,60,-99.99,,,0.00,0,weatherlink.com 1.10,2013-01-05 22:01:00,
2013-01-05 17:16:00,35.7,24.0,30.28,West,267,0.0,-999.0,62,-99.99,,,0.00,0,weatherlink.com 1.10,2013-01-05 22:16:00,
2013-01-05 17:31:00,34.8,24.0,30.29,West,267,0.0,-999.0,65,-99.99,,,0.00,0,weatherlink.com 1.10,2013-01-05 22:31:00,
2013-01-05 17:46:00,33.7,24.0,30.29,West,267,0.0,-999.0,68,-99.99,,,0.00,0,weatherlink.com 1.10,2013-01-05 22:46:00,
2013-01-05 18:01:00,32.6,24.0,30.28,West,267,0.0,-999.0,70,-99.99,,,0.00,0,weatherlink.com 1.10,2013-01-05 23:01:00,
2013-01-05 18:16:00,31.7,24.0,30.29,West,267,0.0,-999.0,73,-99.99,,,0.00,0,weatherlink.com 1.10,2013-01-05 23:16:00,
2013-01-05 18:31:00,30.9,24.0,30.29,West,267,0.0,-999.0,75,-99.99,,,0.00,0,weatherlink.com 1.10,2013-01-05 23:31:00,
2013-01-05 18:46:00,30.5,24.0,30.29,West,267,0.0,-999.0,76,-99.99,,,0.00,0,weatherlink.com 1.10,2013-01-05 23:46:00,
2013-01-05 19:01:00,30.0,24.0,30.30,West,267,0.0,-999.0,78,-99.99,,,0.00,0,weatherlink.com 1.10,2013-01-06 00:01:00,
2013-01-05 19:16:00,29.6,24.0,30.29,West,267,0.0,-999.0,80,-99.99,,,0.00,0,weatherlink.com 1.10,2013-01-06 00:16:00,
2013-01-05 19:31:00,29.5,24.0,30.30,West,267,0.0,-999.0,81,-99.99,,,0.00,0,weatherlink.com 1.10,2013-01-06 00:31:00,
2013-01-05 19:46:00,29.2,24.0,30.29,West,267,0.0,-999.0,80,-99.99,,,0.00,0,weatherlink.com 1.10,2013-01-06 00:46:00,
2013-01-05 20:01:00,29.4,24.0,30.28,West,267,1.0,-999.0,80,-99.99,,,0.00,0,weatherlink.com 1.10,2013-01-06 01:01:00,
2013-01-05 20:16:00,29.5,24.0,30.26,West,267,0.0,-999.0,79,-99.99,,,0.00,0,weatherlink.com 1.10,2013-01-06 01:16:00,
2013-01-05 20:31:00,29.5,24.0,30.26,West,267,0.0,-999.0,80,-99.99,,,0.00,0,weatherlink.com 1.10,2013-01-06 01:31:00,
2013-01-05 20:46:00,29.2,24.0,30.27,West,267,0.0,-999.0,80,-99.99,,,0.00,0,weatherlink.com 1.10,2013-01-06 01:46:00,
2013-01-05 21:01:00,29.6,24.0,30.27,West,267,1.0,-999.0,80,-99.99,,,0.00,0,weatherlink.com 1.10,2013-01-06 02:01:00,
2013-01-05 21:16:00,30.2,24.0,30.29,West,267,0.0,-999.0,78,-99.99,,,0.00,0,weatherlink.com 1.10,2013-01-06 02:16:00,
2013-01-05 21:31:00,30.5,24.0,30.29,SSW,206,0.0,-999.0,77,-99.99,,,0.00,0,weatherlink.com 1.10,2013-01-06 02:31:00,
2013-01-05 21:47:00,30.6,24.0,30.27,SSW,206,0.0,-999.0,76,-99.99,,,0.00,0,weatherlink.com 1.10,2013-01-06 02:47:00,
2013-01-05 22:02:00,30.3,24.0,30.25,SSW,206,0.0,-999.0,77,-99.99,,,0.00,0,weatherlink.com 1.10,2013-01-06 03:02:00,
2013-01-05 22:17:00,30.0,24.0,30.24,SSW,206,0.0,-999.0,78,-99.99,,,0.00,0,weatherlink.com 1.10,2013-01-06 03:17:00,
2013-01-05 22:32:00,30.2,24.0,30.25,SSW,206,0.0,-999.0,79,-99.99,,,0.00,0,weatherlink.com 1.10,2013-01-06 03:32:00,
2013-01-05 22:47:00,30.4,25.0,30.25,SSW,206,0.0,-999.0,81,-99.99,,,0.00,0,weatherlink.com 1.10,2013-01-06 03:47:00,
2013-01-05 23:02:00,30.4,25.0,30.25,WSW,238,1.0,-999.0,81,-99.99,,,0.00,0,weatherlink.com 1.10,2013-01-06 04:02:00,
2013-01-05 23:17:00,30.7,25.0,30.25,WSW,238,1.0,-999.0,79,-99.99,,,0.00,0,weatherlink.com 1.10,2013-01-06 04:17:00,
2013-01-05 23:32:00,31.1,25.0,30.22,WSW,238,0.0,-999.0,78,-99.99,,,0.00,0,weatherlink.com 1.10,2013-01-06 04:32:00,
2013-01-05 23:47:00,31.4,26.0,30.24,WSW,238,0.0,-999.0,79,-99.99,,,0.00,0,weatherlink.com 1.10,2013-01-06 04:47:00,